World > North America > United States > Virginia > Providence Forge  

Providence Forge, VA Hourly Weather Updates

Feedback E-mail the Weather

Quick Clicks

Providence Forge, VA Weather Maps

°F °C°F °C
Providence Forge Weather Map
UTC Time: 5/19/2024, 11:43
Your Time:

Providence Forge, VA Regional Weather

Expires:202405191200;;477331
ASUS41 KAKQ 191111
RWRAKQ

REGIONAL WEATHER ROUNDUP
NATIONAL WEATHER SERVICE WAKEFIELD VA
700 AM EDT SUN MAY 19 2024

Note: "fair" indicates few or no clouds below 12,000 feet with no
significant weather and/or obstructions to visibility. * = Denotes
station may not report precipitation (e.g., rain,snow,etc.),
thunder or fog.


VAZ048-049-060>072-079>083-191200-
CENTRAL AND SOUTH CENTRAL VIRGINIA
  
CITY           SKY/WX    TMP DP  RH WIND       PRES   REMARKS
RICHMOND       CLOUDY    62  59  90 N5        29.99R FOG              
CHESTERFIELD*  CLOUDY    60  32  34 N3        29.99R                  
PETERSBURG*    CLOUDY    60  59  96 N3        30.00R FOG              
HANOVER        CLOUDY    62  60  93 CALM      30.00R FOG              
TAPPAHANNOCK*  CLOUDY    59  59 100 CALM      30.00R                  
QUINTON*       CLOUDY    59  59  99 CALM      29.98R                  
CHARLOTTSVILLE CLOUDY    62  58  86 CALM      30.01R FOG              
GORDONSVILLE*  CLOUDY    59  59  99 CALM      30.00R                  
ORANGE*        CLOUDY    59  59 100 CALM      30.02R                  
LOUISA*        CLOUDY    60  59  99 CALM      30.00R                  
BUMPASS*       CLOUDY    60  60  99 CALM      30.00R                  
FARMVILLE*     CLOUDY    59  59 100 CALM      29.99R                  
CREWE*         CLOUDY    59  56  92 CALM      29.99R                  
FORT PICKETT*  CLOUDY    59  59 100 N5        29.99R FOG              
CHASE CITY*    CLOUDY    58  58 100 N5        29.99R                  
CLARKSVILLE*   CLOUDY    59  55  88 N3        29.99R                  
SOUTH HILL*    CLOUDY    59  58  98 N7        30.04R                  
LAWRENCEVILLE* CLOUDY    60  59  96 CALM      29.98R                  
EMPORIA*       CLOUDY    58  57  98 CALM      29.99R                  
$$


SKY/WX - Weather  TMP - Temperature  DP - Dew Point  RH - Humidity
WIND - Wind Direction/Speed PRES - Barometric Pressure VSB - Visibility
WCI - Wind Chill Index E13G22 Wind - East Wind 13 mph/Gusts of 22 mph

Trending Headlines

Trending Entertainment Headlines

Providence Forge Radar Loop

Use the map search tool if you want to place a location marker on the radar map...

Providence Forge Quick Facts

National Two Day Weather Forecast


E-mail the Providence Forge Weather Forecast

Voice your opinion or tell us about page issues...